Weather History for Anchorage Merrill, AK

Change the Weather History Date:

Sunday, October 26, 2014

  Actual Average Record
Temperature  
Mean Temperature 28 °F -  
Max Temperature 33 °F 33 °F 48 °F (2002)
Min Temperature 23 °F 22 °F 3 °F (1996)
Degree Days  
Heating Degree Days 36    
Moisture  
Dew Point 25 °F    
Average Humidity 86    
Maximum Humidity 96    
Minimum Humidity 75    
Precipitation  
Precipitation 0.00 in - - ()
Sea Level Pressure  
Sea Level Pressure 29.92 in    
Wind  
Wind Speed 2 mph (NE)    
Max Wind Speed 7 mph    
Max Gust Speed -    
Visibility 7 miles    
Events Fog    
Averages and records for this station are not official NWS values.
T = Trace of Precipitation, MM = Missing Value Source: NWS Daily Summary

Daily Weather History Graph

Daily Weather History Graph

Search for Another Location

Airport:

Trip Planner

Search our weather history database for the weather conditions in past years. The results will help you decide how hot, cold, wet, or windy it might be!

Date:

Astronomy

Oct. 26, 2014 Rise Set
Actual Time 9:11 AM AKDT 6:14 PM AKDT
Civil Twilight 8:25 AM AKDT 6:59 PM AKDT
Nautical Twilight 7:34 AM AKDT 7:50 PM AKDT
Astronomical Twilight 6:44 AM AKDT 8:40 PM AKDT
Moon 12:34 PM AKDT (10/26) 7:58 PM AKDT (10/26)
Length of Visible Light 10h 34m
Length of Day
9h 02m
Waxing Crescent, 9% of the Moon is Illuminated
Oct 26
Waxing Crescent
Oct 30
First Quarter
Nov 6
Full
Nov 14
Last Quarter
Nov 22
New

Hourly Weather History & Observations

Time (AKDT) Temp. Windchill Dew Point Humidity Pressure Visibility Wind Dir Wind Speed Gust Speed Precip Events Conditions
12:53 AM 30.9 °F 27.5 °F 25.0 °F 79% 29.83 in 10.0 mi North 3.5 mph - N/A   Mostly Cloudy
1:53 AM 30.0 °F 26.5 °F 25.0 °F 82% 29.83 in 10.0 mi ESE 3.5 mph - N/A   Overcast
2:14 AM 30.0 °F - 25.0 °F 82% 29.83 in 10.0 mi Calm Calm - N/A   Mostly Cloudy
2:53 AM 30.0 °F - 25.0 °F 82% 29.83 in 10.0 mi Calm Calm - N/A   Mostly Cloudy
3:53 AM 28.0 °F - 24.1 °F 85% 29.85 in 10.0 mi Calm Calm - N/A   Mostly Cloudy
4:53 AM 30.9 °F - 28.0 °F 89% 29.86 in 6.0 mi Calm Calm - N/A   Overcast
5:45 AM 30.9 °F 27.5 °F 28.9 °F 92% 29.86 in 0.8 mi NE 3.5 mph - N/A   Overcast
5:53 AM 30.9 °F - 28.9 °F 92% 29.86 in 0.5 mi Calm Calm - N/A Fog Light Freezing Fog
6:53 AM 30.0 °F - 28.9 °F 96% 29.88 in 0.2 mi Calm Calm - N/A Fog Light Freezing Fog
7:53 AM 28.9 °F - 28.0 °F 96% 29.89 in 0.2 mi Calm Calm - N/A Fog Light Freezing Fog
8:25 AM 28.0 °F 24.2 °F 26.1 °F 92% 29.89 in 0.2 mi East 3.5 mph - N/A   Mist
8:37 AM 28.0 °F 24.2 °F 26.1 °F 92% 29.89 in 0.2 mi East 3.5 mph - N/A Fog Light Freezing Fog
8:53 AM 28.0 °F 24.2 °F 26.1 °F 92% 29.90 in 0.2 mi East 3.5 mph - N/A Fog Light Freezing Fog
9:37 AM 28.0 °F 24.2 °F 26.1 °F 92% 29.90 in 3.0 mi ESE 3.5 mph - N/A   Overcast
9:53 AM 27.0 °F 23.0 °F 25.0 °F 92% 29.91 in 6.0 mi ENE 3.5 mph - N/A   Mostly Cloudy
10:09 AM 27.0 °F - 24.1 °F 89% 29.91 in 10.0 mi Calm Calm - N/A   Overcast
10:11 AM 27.0 °F - 24.1 °F 89% 29.91 in 8.0 mi Calm Calm - N/A   Overcast
10:53 AM 28.9 °F 25.2 °F 25.0 °F 85% 29.94 in 8.0 mi NE 3.5 mph - N/A   Overcast
11:53 AM 30.0 °F - 27.0 °F 88% 29.95 in 10.0 mi Calm Calm - N/A   Overcast
12:53 PM 30.0 °F - 26.1 °F 85% 29.96 in 10.0 mi Calm Calm - N/A   Overcast
1:48 PM 30.2 °F 26.7 °F 26.6 °F 86% 29.95 in 8.0 mi Variable 3.5 mph - N/A   Mostly Cloudy
1:53 PM 30.9 °F 27.5 °F 27.0 °F 85% 29.96 in 9.0 mi NNW 3.5 mph - N/A   Mostly Cloudy
2:53 PM 30.0 °F 24.1 °F 26.1 °F 85% 29.96 in 10.0 mi NNE 5.8 mph - N/A   Overcast
3:43 PM 30.9 °F 26.2 °F 26.1 °F 82% 29.95 in 10.0 mi North 4.6 mph - N/A   Mostly Cloudy
3:53 PM 32.0 °F 25.6 °F 27.0 °F 82% 29.96 in 10.0 mi NNE 6.9 mph - N/A   Scattered Clouds
4:53 PM 33.1 °F 27.7 °F 26.1 °F 75% 29.96 in 10.0 mi NNE 5.8 mph - N/A   Scattered Clouds
5:53 PM 32.0 °F 27.5 °F 26.1 °F 79% 29.96 in 10.0 mi North 4.6 mph - N/A   Scattered Clouds
6:53 PM 30.0 °F 26.5 °F 26.1 °F 85% 29.96 in 10.0 mi NNE 3.5 mph - N/A   Clear
7:53 PM 28.9 °F - 25.0 °F 85% 29.97 in 10.0 mi Calm Calm - N/A   Clear
8:53 PM 27.0 °F - 23.0 °F 85% 29.96 in 10.0 mi Calm Calm - N/A   Clear
9:53 PM 25.0 °F - 21.0 °F 85% 29.97 in 10.0 mi Calm Calm - N/A   Partly Cloudy
10:53 PM 24.1 °F - 18.0 °F 77% 29.98 in 10.0 mi Calm Calm - N/A   Partly Cloudy
11:53 PM 23.0 °F - 18.0 °F 81% 29.98 in 10.0 mi Calm Calm - N/A   Partly Cloudy